Location: Sungai Bunut
(2.6333°N, 113.7333°E)
Time: 07:22:45
(UTC+00:00)

Transit 2A Rocket - Pass Details

Date: 10 December 2023
Orbit: 590 x 905 km, 66.7° (Epoch: 04 March)

Event Time Altitude Azimuth Distance (km) Brightness Sun altitude
Rises 09:31:04 0° 163° (SSE) 3,339 8.4 9.7°
Reaches altitude 10° 09:35:33 10° 130° (SE) 2,318 7.3 8.7°
Maximum altitude 09:37:07 11° 112° (ESE) 2,198 7.0 8.3°
Drops below altitude 10° 09:38:39 10° 95° (E) 2,252 6.9 7.9°
Sets 09:42:46 0° 61° (ENE) 3,080 7.4 7.0°
